STARLINK-31924, 59904

Orbit data source: Space-Track

STARLINK-31924, 59904 is a payload satellite owned by SpaceX/Seattle (US) in LEO that was launched on Tue, 28 May 2024 UTC via an FALCON 9 launch vehicle from the Air Force Eastern Test Range (AFETR). Payload-class satellites include a variety of spacecraft equipped with specific instruments for various scientific and technological missions. These include communications satellites like Starlink; space stations such as the ISS; scientific satellites like the Hubble; Earth observation satellites from companies like Planet Labs, Umbra, and HawkEye 360; GPS; miniature CubeSats for education and research; and military/defense satellites.

Loading next visibility...
Identifier
59904, 2024-100V
Orbit
LEO
Last TLE update
1 day ago
Origin
Manufacturer
SpaceX/Seattle
Mission
Operational spacecraft
Bus & Motor
STARLINK V2M, Unknown motor
Mass
730 kg wet, ~700 kg dry
Launch date (UTC)
2024-05-28 (1 year ago)
Launch vehicle
FALCON 9
Launch site
Air Force Eastern Test Range (AFETR)
Object type
Payload
Rocket body
Debris
Shape & HBR
Unknown
Radar Cross Section
Large (>1 m²)

Expand to show TLE details & history

TLE from 1 day ago
0 STARLINK-31924
1 59904U 24100V   25172.24566174  .00000455  00000-0  26063-4 0  9991
2 59904  43.0013 161.7835 0001301 270.3745  89.6958 15.27573414 61162
Epoch: 2025-06-21T05:53Z
TLE epoch observation values (Epoch: 2025-06-21T05:53:45.174Z)
Latitude
0.00002°
Longitude
163.65789°
Altitude
482.84 km
Speed
7.626 km/s
True Right ascension
10h 47m 08s
True Declination
0° 00' 00"
Sunlit
Object was in daylight at epoch
Visualization orbit readout
Latitude
43.13033°
Longitude
-116.78289°
Altitude
487.084 km
Speed
7.627 km/s
Apparent Right ascension
15h 12m 15s
Apparent Declination
3° 33' 41"
Sunlit
Object is in daylight
Visualization observer readout
Local Sidereal Time
02:17:49
Azimuth
340.687° N
Elevation
-44.761°
Doppler factor
1
Orbital elements
Apogee altitude
485.907 km
Perigee altitude
484.121 km
Semi-major axis
6,863.151 km
Eccentricity
0.00013
Inclination
43.0013°
RAAN
161.7835°
Arg. of periapsis
270.3745°
True anomaly
Unknown
Mean anomaly
89.6958°
Eccentric anomaly
Unknown
Mean motion
3.81731 °/min
Orbital period
94.31 mins
BSTAR
0.000026063
Loading maneuver chart data...
Loading SW <> Apogee altitude chart data...
Loading historical data...
Loading historical data...
Loading historical data...
Loading historical data...
Loading historical data...
Loading historical data...
Loading historical data...

STARLINK-31924 Visibility forecast

Observer location: undefined°, undefined°

Span
Click to sort rows by Start time (UTC) header in descending order
Start Az.
Max El. time (UTC)
Max El. Az.
Max El.
End time (UTC)
End Az.
6 mins2025-06-23 02:02:03.805Z216.526° SW2025-06-23 02:05:03.805Z159.119° S30.447°2025-06-23 02:08:03.805Z87.386° E
5 mins2025-06-23 03:42:03.805Z268.505° W2025-06-23 03:44:03.805Z339.901° N42.853°2025-06-23 03:47:03.805Z68.944° E
5 mins2025-06-23 05:21:03.805Z294.05° NW2025-06-23 05:23:03.805Z346.979° N38.207°2025-06-23 05:26:03.805Z79.001° E
6 mins2025-06-23 07:00:03.805Z282.585° WNW2025-06-23 07:02:03.805Z242.278° WSW42.29°2025-06-23 07:06:03.805Z118.69° SE
|